Powrót do katalogu

PUNCH-WFI03

AktywnyNaukaSSO
NORAD 63180·PAYLOAD·🇺🇸 United States

Wystrzelony Mar 12, 2025 z Vandenberg Space Force Base

Loading…

Następne Przeloty (najbliższe 24 godziny)

TLE

ŚwieżeSource: Space-Track

Epoka: Sep 14, 2026, 10:58 UTC

1 63180U 25047C   26257.45723740  .00000364  00000-0  62420-4 0  9991
2 63180  97.9568  80.8755 0008825 238.1534 121.8816 14.74428558 81213

Śledź PUNCH-WFI03 w czasie rzeczywistym z AllMySat

Download on the App Store